Weather History for Pampa / Mesa Vista, TX

Change the Weather History Date:

Sunday, November 4, 2012

  Actual Average (KBGD) Record (KBGD)
Temperature  
Mean Temperature 52 °F 53 °F  
Max Temperature 71 °F 66 °F 82 °F (2005)
Min Temperature 32 °F 40 °F 22 °F (1982)
Degree Days  
Heating Degree Days 14 12  
Month to date heating degree days 46  
Since 1 July heating degree days 267  
Cooling Degree Days 0 0  
Month to date cooling degree days 0  
Year to date cooling degree days 1835  
Growing Degree Days 2 (Base 50)    
Moisture  
Dew Point 33 °F    
Average Humidity 56    
Maximum Humidity 87    
Minimum Humidity 27    
Precipitation  
Precipitation 0.00 in 0.04 in 1.77 in (1986)
Month to date precipitation 0.16  
Year to date precipitation 20.27  
Snow  
Snow 0.00 in - - ()
Month to date snowfall  
Since 1 July snowfall  
Since 1 September snowfall  
Snow Depth -    
Sea Level Pressure  
Sea Level Pressure 30.15 in    
Wind  
Wind Speed 4 mph (SW)    
Max Wind Speed 12 mph    
Max Gust Speed 16 mph    
Visibility 10 miles    
Events      
T = Trace of Precipitation, MM = Missing Value Source: NWS Daily Summary

Daily Weather History Graph

Daily Weather History Graph

Search for Another Location

Airport:

Trip Planner

Search our weather history database for the weather conditions in past years. The results will help you decide how hot, cold, wet, or windy it might be!

Date:

Astronomy

Nov. 04, 2012 Rise Set
Actual Time 7:09 AM CST 5:44 PM CST
Civil Twilight 6:43 AM CST 6:11 PM CST
Nautical Twilight 6:12 AM CST 6:42 PM CST
Astronomical Twilight 5:42 AM CST 7:12 PM CST
Moon 10:26 PM CST (11/4) 11:52 AM CST (11/4)
Length of Visible Light 11h 28m
Length of Day
10h 35m
Waning Gibbous, 72% of the Moon is Illuminated
Nov 4
Waning Gibbous
Nov 6
Last Quarter
Nov 13
New
Nov 20
First Quarter
Nov 28
Full

Hourly Weather History & Observations

Time (CST) Temp. Windchill Dew Point Humidity Pressure Visibility Wind Dir Wind Speed Gust Speed Precip Events Conditions
12:35 AM 42.8 °F - 32.0 °F 66% 30.22 in 10.0 mi Calm Calm - N/A   Clear
12:55 AM 37.4 °F - 30.2 °F 75% 30.21 in 10.0 mi Calm Calm - N/A   Clear
1:15 AM 37.4 °F 34.9 °F 30.2 °F 75% 30.21 in 10.0 mi West 3.5 mph - N/A   Clear
1:35 AM 39.2 °F 37.0 °F 30.2 °F 70% 30.21 in 10.0 mi SW 3.5 mph - N/A   Clear
1:55 AM 35.6 °F 31.7 °F 30.2 °F 81% 30.22 in 10.0 mi West 4.6 mph - N/A   Clear
1:15 AM 37.4 °F - 30.2 °F 75% 30.22 in 10.0 mi Calm Calm - N/A   Clear
1:35 AM 35.6 °F 30.7 °F 28.4 °F 75% 30.22 in 10.0 mi SW 5.8 mph - N/A   Clear
1:55 AM 35.6 °F 29.9 °F 30.2 °F 81% 30.21 in 10.0 mi SSW 6.9 mph - N/A   Clear
2:15 AM 37.4 °F 34.9 °F 30.2 °F 75% 30.21 in 10.0 mi SSW 3.5 mph - N/A   Clear
2:35 AM 33.8 °F 29.6 °F 28.4 °F 81% 30.22 in 10.0 mi West 4.6 mph - N/A   Clear
3:15 AM 33.8 °F 30.8 °F 28.4 °F 81% 30.22 in 10.0 mi WSW 3.5 mph - N/A   Clear
3:35 AM 33.8 °F 28.6 °F 28.4 °F 81% 30.22 in 10.0 mi SW 5.8 mph - N/A   Clear
3:55 AM 32.0 °F 26.4 °F 28.4 °F 87% 30.21 in 10.0 mi WSW 5.8 mph - N/A   Clear
4:15 AM 32.0 °F 24.8 °F 26.6 °F 80% 30.21 in 10.0 mi SW 8.1 mph - N/A   Clear
4:35 AM 33.8 °F 29.6 °F 28.4 °F 81% 30.22 in 10.0 mi SW 4.6 mph - N/A   Clear
4:55 AM 33.8 °F 29.6 °F 28.4 °F 81% 30.21 in 10.0 mi SSW 4.6 mph - N/A   Clear
5:15 AM 33.8 °F 28.6 °F 30.2 °F 87% 30.21 in 10.0 mi SSW 5.8 mph - N/A   Clear
5:35 AM 33.8 °F 28.6 °F 28.4 °F 81% 30.21 in 10.0 mi SSW 5.8 mph - N/A   Clear
5:55 AM 32.0 °F 25.6 °F 28.4 °F 87% 30.21 in 10.0 mi SW 6.9 mph - N/A   Clear
6:15 AM 33.8 °F 29.6 °F 28.4 °F 81% 30.20 in 10.0 mi SW 4.6 mph - N/A   Clear
6:35 AM 33.8 °F - 28.4 °F 81% 30.20 in 10.0 mi Calm Calm - N/A   Clear
6:55 AM 32.0 °F - 28.4 °F 87% 30.21 in 10.0 mi Calm Calm - N/A   Clear
7:15 AM 32.0 °F - 28.4 °F 87% 30.22 in 10.0 mi Calm Calm - N/A   Clear
7:35 AM 32.0 °F 27.5 °F 28.4 °F 87% 30.21 in 10.0 mi SW 4.6 mph - N/A   Clear
7:55 AM 33.8 °F 30.8 °F 30.2 °F 87% 30.21 in 10.0 mi SW 3.5 mph - N/A   Clear
8:15 AM 37.4 °F 33.8 °F 32.0 °F 81% 30.22 in 10.0 mi SW 4.6 mph - N/A   Clear
8:35 AM 42.8 °F 41.1 °F 32.0 °F 66% 30.21 in 10.0 mi SW 3.5 mph - N/A   Clear
9:15 AM 48.2 °F - 32.0 °F 54% 30.21 in 10.0 mi SW 3.5 mph - N/A   Clear
9:35 AM 51.8 °F - 32.0 °F 47% 30.21 in 10.0 mi SSW 5.8 mph - N/A   Clear
9:55 AM 53.6 °F - 32.0 °F 44% 30.20 in 10.0 mi SSW 6.9 mph - N/A   Clear
10:15 AM 55.4 °F - 32.0 °F 41% 30.20 in 10.0 mi WSW 4.6 mph - N/A   Clear
10:35 AM 57.2 °F - 32.0 °F 38% 30.19 in 10.0 mi WSW 5.8 mph - N/A   Clear
10:55 AM 59.0 °F - 32.0 °F 36% 30.19 in 10.0 mi WSW 9.2 mph - N/A   Clear
11:15 AM 60.8 °F - 33.8 °F 36% 30.18 in 10.0 mi WSW 5.8 mph - N/A   Clear
11:35 AM 62.6 °F - 33.8 °F 34% 30.18 in 10.0 mi SSW 5.8 mph - N/A   Clear
11:55 AM 64.4 °F - 35.6 °F 34% 30.16 in 10.0 mi SSW 9.2 mph - N/A   Clear
12:15 PM 66.2 °F - 35.6 °F 32% 30.14 in 10.0 mi SW 10.4 mph - N/A   Clear
12:35 PM 66.2 °F - 35.6 °F 32% 30.13 in 10.0 mi WSW 6.9 mph - N/A   Clear
12:55 PM 68.0 °F - 35.6 °F 30% 30.12 in 10.0 mi West 6.9 mph - N/A   Clear
1:15 PM 69.8 °F - 37.4 °F 31% 30.11 in 10.0 mi SW 5.8 mph - N/A   Clear
1:35 PM 69.8 °F - 37.4 °F 31% 30.10 in 10.0 mi WSW 9.2 mph 16.1 mph N/A   Clear
1:55 PM 71.6 °F - 37.4 °F 29% 30.09 in 10.0 mi SSW 5.8 mph - N/A   Clear
2:15 PM 69.8 °F - 37.4 °F 31% 30.08 in 10.0 mi SW 5.8 mph - N/A   Clear
2:35 PM 71.6 °F - 35.6 °F 27% 30.07 in 10.0 mi SW 6.9 mph - N/A   Clear
2:55 PM 71.6 °F - 35.6 °F 27% 30.07 in 10.0 mi WSW 6.9 mph - N/A   Clear
3:15 PM 71.6 °F - 35.6 °F 27% 30.06 in 10.0 mi SSW 3.5 mph - N/A   Clear
3:35 PM 71.6 °F - 35.6 °F 27% 30.05 in 10.0 mi SW 5.8 mph - N/A   Clear
3:55 PM 71.6 °F - 35.6 °F 27% 30.05 in 10.0 mi SW 6.9 mph - N/A   Clear
4:15 PM 71.6 °F - 35.6 °F 27% 30.05 in 10.0 mi WSW 4.6 mph - N/A   Clear
4:55 PM 71.6 °F - 35.6 °F 27% 30.05 in 10.0 mi SW 3.5 mph - N/A   Clear
5:15 PM 69.8 °F - 35.6 °F 28% 30.05 in 10.0 mi West 3.5 mph - N/A   Clear
5:35 PM 68.0 °F - 35.6 °F 30% 30.05 in 10.0 mi Calm Calm - N/A   Clear
5:55 PM 64.4 °F - 35.6 °F 34% 30.05 in 10.0 mi Calm Calm - N/A   Clear
6:15 PM 62.6 °F - 35.6 °F 37% 30.06 in 10.0 mi Calm Calm - N/A   Clear
6:35 PM 62.6 °F - 35.6 °F 37% 30.06 in 10.0 mi Calm Calm - N/A   Clear
6:55 PM 57.2 °F - 35.6 °F 44% 30.07 in 10.0 mi Calm Calm - N/A   Clear
7:15 PM 55.4 °F - 35.6 °F 47% 30.08 in 10.0 mi Calm Calm - N/A   Clear
7:35 PM 53.6 °F - 37.4 °F 54% 30.09 in 10.0 mi Calm Calm - N/A   Clear
7:55 PM 53.6 °F - 35.6 °F 51% 30.09 in 10.0 mi South 6.9 mph - N/A   Clear
8:15 PM 53.6 °F - 35.6 °F 51% 30.09 in 10.0 mi South 8.1 mph - N/A   Clear
8:35 PM 51.8 °F - 35.6 °F 54% 30.10 in 10.0 mi SW 6.9 mph - N/A   Clear
8:55 PM 50.0 °F - 35.6 °F 58% 30.10 in 10.0 mi WSW 8.1 mph - N/A   Clear
9:15 PM 50.0 °F - 35.6 °F 58% 30.11 in 10.0 mi WSW 9.2 mph - N/A   Clear
9:35 PM 50.0 °F - 35.6 °F 58% 30.12 in 10.0 mi SW 9.2 mph - N/A   Clear
9:55 PM 50.0 °F - 35.6 °F 58% 30.12 in 10.0 mi SW 11.5 mph - N/A   Clear
10:15 PM 48.2 °F - 35.6 °F 62% 30.12 in 10.0 mi WSW 5.8 mph - N/A   Clear
10:35 PM 48.2 °F - 35.6 °F 62% 30.12 in 10.0 mi SW 4.6 mph - N/A   Clear